Showing default

MIDAS 5 (STRONGBACK), 271

Orbit data source: Space-Track

MIDAS 5 (STRONGBACK), 271 is a payload satellite owned by USAF SSD (US) in LEO that was launched on Mon, 09 Apr 1962 UTC via an ATLAS AGENA B launch vehicle from the Air Force Western Test Range (AFWTR). Payloads include a variety of satellites, spacecraft, and rockets equipped with specific instruments for various scientific and technological missions. These include communications satellites like Starlink; space stations such as the ISS; scientific satellites like the Hubble; Earth observation satellites from companies like Planet Labs, Umbra, and HawkEye 360; GPS; miniature CubeSats for education and research; and military/defense satellites.

Loading next visibility...
MIDAS 5 (STRONGBACK) details
Identifier
271, 1962-010A
Orbit
LEO
Last TLE update1 day ago
Origin
Flag of USUSAF SSD (US)
ManufacturerLMSC
MissionDefense Early Warn
Bus & MotorMIDAS, Unknown motor
Mass~1,543 kg wet, ~840 kg dry
Launch date (UTC)
1962-04-09 (63 years ago)
Launch vehicle
ATLAS AGENA B
Launch site
Air Force Western Test Range (AFWTR)
Object type
Payload
Rocket body
Debris
Shape & HBRCyl, 8.99 m
Radar Cross Section11.475 m², Large (>1 m²)

Expand to show TLE details & history

TLE from 1 day ago
0 MIDAS 5 (STRONGBACK)
1 00271U 62010A   24355.51424929  .00000008  00000-0  92847-3 0  9995
2 00271  86.6645  34.8394 0327377 337.5267  21.1575  9.41306537154515
Epoch: 2024-12-20T12:20Z
Definitive object data (Epoch: 2024-12-20T12:20:31.138Z)
Latitude-0.00002°
Longitude120.13099°
Altitude2,811.286 km
Speed6.686 km/s
True Right ascension02h 19m 21s
True Declination0° 00' 00"
Sunlit
Object was in daylight at TLE epoch
Visualization TLE readout
Latitude86.58386°
Longitude-136.52351°
Altitude3,231.419 km
Speed6.406 km/s
Apparent Right ascension01h 56m 06s
Apparent Declination49° 36' 17"
Sunlit
Object is in daylight
Visualization observer readout
Local Sidereal Time13:30:41
Azimuth355.887° N
Elevation-0.304°
Doppler factor1
Orbital elements
Apogee altitude3,404.722 km
Perigee altitude2,784.491 km
Semi-major axis9,472.744 km
Eccentricity0.0327377
Inclination86.6645°
RAAN34.8394°
Arg. of periapsis337.5267°
True anomaly22.56502°
Mean anomaly21.1575°
Eccentric anomaly21.85578°
Mean motion2.35412 °/min
BSTAR0.00092847
Orbital period152.92 mins
Loading maneuver chart data...
Loading historical data...
Loading historical data...
Loading historical data...
Loading historical data...
Loading historical data...
Loading historical data...
Loading historical data...

MIDAS 5 (STRONGBACK) Visibility forecast

Observer location: undefined°, undefined

Span
Click to sort rows by Start time (UTC) header in descending order
Start Az.
Max El. time (UTC)
Max El. Az.
Max El.
End time (UTC)
End Az.
34 mins2024-12-21 14:33:33.319Z358.457° N2024-12-21 14:50:33.319Z92.146° ESE44.705°2024-12-21 15:07:33.319Z176.567° S
25 mins2024-12-21 17:09:33.319Z340.094° N2024-12-21 17:21:33.319Z291.076° WNW26.199°2024-12-21 17:34:33.319Z242.134° WSW
12 mins2024-12-22 00:18:33.319Z76.85° E2024-12-22 00:23:33.319Z55.991° ENE14.446°2024-12-22 00:30:33.319Z28.511° NE
28 mins2024-12-22 02:39:33.319Z162.655° S2024-12-22 02:52:33.319Z79.019° E43.27°2024-12-22 03:07:33.319Z6.054° NNE
25 mins2024-12-22 05:15:33.319Z235.821° WSW2024-12-22 05:27:33.319Z294.397° NW28°2024-12-22 05:40:33.319Z351.063° N
32 mins2024-12-22 13:31:33.319Z4.814° NNE2024-12-22 13:47:33.319Z81.685° E38.526°2024-12-22 14:03:33.319Z151.936° SSE
|